www.pogodaiklimat.ru

Погода и климат >> Архив погоды >> Испания >> Pontevedra


ПОГОДА в Pontevedra

  • Прогноз погоды в Pontevedra
  • Монитор погоды в Pontevedra
  • Климат города

АРХИВ ПОГОДЫ в Pontevedra

Время (UTC), дата Ветер
(напр.,м/с)
 
Видим.   Явления Облачность Т
(С)
Тd
(С)
f
(%)
Тe
(С)
Тes
(С)
Комфортность P
(гПа)
Po
(гПа)
Тmin
(С)
Tmax
(С)
R
(мм)
R24
(мм)
S
(см)
19 12.08 СЗ 3 20 км в посл. час морось н/о +26.0 +15.7 53 +29 +29 душно 1017.6 1005.2
20 12.08 С 1 20 км н/о +24.0 +15.2 58 +27 +27 жарко 1017.9 1005.4
21 12.08 С 2 20 км н/о +23.2 +15.3 61 +27 +27 душно 1018.1 1005.6
22 12.08 С 2 20 км н/о +22.4 +12.6 54 +25 +25 комфорт 1018.0 1005.5
23 12.08 ЮЗ 1 20 км н/о +20.5 +13.9 66 +24 +24 комфорт 1017.8 1005.2
00 13.08 СЗ 2 16 км н/о +18.6 +13.5 72 +20 +20 1017.7 1005.0
01 13.08 СЗ 1 13 км н/о +17.4 +12.9 75 +18 +18 1017.3 1004.5
02 13.08 СЗ 1 20 км н/о +16.8 +12.7 77 +18 +18 1016.7 1003.9
03 13.08 С 1 20 км н/о +15.8 +12.4 80 +17 +17 1016.2 1003.4
04 13.08 ЮВ 1 20 км н/о +15.2 +12.0 81 +16 +16 1016.0 1003.2
05 13.08 ЮВ 1 20 км н/о +14.6 +12.1 85 +15 +15 1015.9 1003.0
06 13.08 СЗ 1 20 км ясно +14.5 +11.6 83 +16 +16 1016.1 1003.2 +14.3
07 13.08 С 1 20 км н/о +15.7 +12.1 79 +16 +16 1015.8 1003.0
08 13.08 З 1 20 км н/о +17.7 +12.4 71 +19 +19 1015.7 1003.0
09 13.08 З 1 20 км ясно +20.7 +13.6 64 +24 +33 комфорт 1015.6 1003.0
10 13.08 З 1 20 км н/о +23.8 +14.8 57 +27 +27 жарко 1015.0 1002.6
11 13.08 З 1 20 км н/о +27.1 +15.8 50 +30 +30 душно 1014.5 1002.2
12 13.08 З 2 20 км 1/0
[Ci sp]
+29.7 +16.1 44 +33 +49 душно 1013.9 1001.7
13 13.08 З 2 20 км н/о +30.5 +14.6 38 +33 +33 душно 1013.6 1001.4
14 13.08 З 2 20 км н/о +29.7 +14.7 40 +32 +32 душно 1013.2 1001.0
15 13.08 Ю 1 20 км ясно +28.2 +14.4 43 +30 +45 жарко 1012.8 1000.6
16 13.08 Ю 1 20 км н/о +26.8 +14.2 46 +29 +29 жарко 1012.8 1000.5
17 13.08 ЮЗ 1 20 км н/о +26.2 +14.0 47 +28 +28 жарко 1012.6 1000.3
18 13.08 ЮЗ 1 15 км 1/0
[Ci sp]
+24.9 +14.1 51 +27 +29 жарко 1012.4 1000.0 +30.7
19 13.08 ЮВ 1 20 км н/о +23.7 +13.8 54 +26 +26 жарко 1012.5 1000.1
20 13.08 ЮВ 1 20 км н/о +22.9 +13.7 56 +26 +26 жарко 1012.8 1000.3
21 13.08 СВ 1 20 км н/о +22.1 +13.7 59 +25 +25 комфорт 1013.0 1000.5
22 13.08 ЮВ 1 20 км н/о +21.1 +13.8 63 +24 +24 комфорт 1013.0 1000.5
23 13.08 В 1 20 км н/о +20.7 +14.6 68 +25 +25 комфорт 1012.7 1000.2
00 14.08 ЮВ 1 20 км н/о +19.2 +14.5 74 +22 +22 комфорт 1012.6 1000.0
01 14.08 З 1 20 км н/о +18.7 +14.4 76 +21 +21 комфорт 1012.4 999.8
02 14.08 Ю 1 20 км н/о +17.7 +14.6 82 +19 +19 1012.5 999.8
03 14.08 ЮВ 1 20 км н/о +17.3 +14.4 83 +18 +18 1012.3 999.6
04 14.08 ЮВ 1 15 км н/о +16.3 +14.3 88 +18 +18 1012.4 999.7
05 14.08 Ю 1 7000 м н/о +16.0 +14.5 91 +17 +17 1012.4 999.7
06 14.08 С 1 12 км н/о +15.9 +14.4 91 +17 +17 1012.8 1000.0 +15.7
07 14.08 С 1 14 км н/о +16.5 +14.7 89 +18 +18 1013.3 1000.6
08 14.08 З 1 20 км н/о +17.5 +14.9 85 +19 +19 1013.4 1000.7
09 14.08 З 1 17 км н/о +19.5 +15.2 76 +22 +22 комфорт 1013.7 1001.1
10 14.08 ЮЗ 2 18 км н/о +18.9 +15.6 81 +21 +21 комфорт 1014.1 1001.5
11 14.08 З 2 20 км в посл. час дождь н/о +22.0 +15.6 67 +26 +26 душно 1014.3 1001.8
12 14.08 З 2 20 км 8/0
[Ac As]
+22.6 +16.2 67 +27 +34 душно 1014.4 1001.9
13 14.08 ЮЗ 1 20 км н/о +21.6 +16.3 72 +25 +25 комфорт 1014.3 1001.8
14 14.08 ЮЗ 2 19 км н/о +21.7 +16.4 72 +26 +26 душно 1014.5 1002.0
15 14.08 ЮЗ 1 20 км 3/0
[Ac trans]
+21.0 +16.0 73 +26 +37 душно 1014.7 1002.2
16 14.08 ЮЗ 1 16 км н/о +20.6 +16.8 79 +25 +25 комфорт 1015.0 1002.4
17 14.08 З 1 16 км н/о +20.5 +17.1 81 +25 +25 комфорт 1015.2 1002.6
18 14.08 З 1 5000 м дымка 5/1 50 м
[St Ac trans Ci sp]
+20.5 +16.9 80 +25 +26 комфорт 1015.2 1002.6 +22.9
19 14.08 Ю 1 20 км н/о +19.4 +16.6 84 +23 +23 комфорт 1015.5 1002.9
20 14.08 Ю 1 19 км н/о +18.2 +16.2 88 +20 +20 1016.0 1003.3
21 14.08 Ю 1 20 км н/о +18.1 +16.3 89 +20 +20 1016.7 1004.0
22 14.08 ЮВ 1 16 км н/о +17.8 +16.1 90 +19 +19 1017.1 1004.4
23 14.08 ЮВ 1 14 км н/о +17.4 +16.1 92 +19 +19 1017.0 1004.3
00 15.08 Ю 1 13 км н/о +17.2 +16.1 93 +19 +19 1017.3 1004.6
01 15.08 СЗ 1 19 км н/о +17.1 +15.8 92 +18 +18 1017.2 1004.5
02 15.08 СВ 1 19 км н/о +16.8 +15.5 92 +18 +18 1017.1 1004.3
03 15.08 ЮВ 1 19 км н/о +16.5 +15.2 92 +18 +18 1017.4 1004.6
04 15.08 ЮЗ 1 12 км н/о +15.8 +15.0 95 +17 +17 1017.6 1004.8
05 15.08 ЮВ 1 12 км н/о +15.6 +15.1 97 +17 +17 1017.9 1005.1
06 15.08 ЮВ 1 15 км 9/6 300 м
[Sc Ac und]
+15.9 +15.3 96 +17 +17 1018.3 1005.5 +15.5
07 15.08 ЮВ 1 14 км н/о +16.4 +15.8 96 +17 +17 1018.9 1006.1
08 15.08 З 1 18 км н/о +18.3 +16.3 88 +20 +20 1019.1 1006.4
09 15.08 СЗ 2 20 км 6/3 300 м
[Cu Sc Ac trans Ci sp]
+20.5 +15.7 74 +24 +29 комфорт 1019.2 1006.6
10 15.08 З 3 20 км н/о +22.3 +15.6 66 +26 +26 жарко 1019.6 1007.0
11 15.08 З 3 20 км н/о +22.4 +16.0 67 +27 +27 душно 1019.5 1007.0
12 15.08 З 3 20 км 4/3 300 м
[Cu med, cong Ac trans Ci sp]
+23.7 +15.7 61 +27 +36 жарко 1019.6 1007.1
13 15.08 З 2 20 км н/о +24.4 +15.9 59 +28 +28 душно 1019.5 1007.0
14 15.08 З 2 20 км н/о +24.1 +15.6 59 +27 +27 жарко 1019.6 1007.1
15 15.08 Ю 1 20 км 4/1 300 м
[Cu hum Ci sp]
+23.1 +14.6 59 +27 +39 душно 1019.5 1007.0
16 15.08 ЮЗ 1 20 км н/о +22.2 +14.1 60 +25 +25 комфорт 1019.8 1007.2
17 15.08 Ю 1 20 км н/о +21.0 +13.2 61 +25 +25 комфорт 1020.2 1007.6
18 15.08 Ю 1 15 км 3/0
[Ci sp]
+20.1 +13.5 66 +24 +25 комфорт 1020.7 1008.0 +24.7
19 15.08 Ю 1 20 км н/о +18.7 +14.2 75 +21 +21 комфорт 1021.2 1008.5
20 15.08 ЮЗ 1 20 км н/о +17.4 +14.5 83 +19 +19 1021.8 1009.0
21 15.08 ЮЗ 1 20 км н/о +16.3 +14.3 88 +18 +18 1022.4 1009.5
22 15.08 В 1 20 км н/о +15.7 +14.1 90 +17 +17 1022.4 1009.5
23 15.08 СВ 1 20 км н/о +15.3 +13.7 90 +16 +16 1022.5 1009.6
00 16.08 В 2 20 км н/о +14.6 +12.3 86 +14 +14 1022.3 1009.4
01 16.08 В 2 20 км н/о +14.3 +12.2 87 +14 +14 1021.9 1009.0
02 16.08 В 2 20 км н/о +13.8 +11.8 88 +13 +13 1021.9 1008.9
03 16.08 В 2 20 км н/о +13.5 +11.4 87 +13 +13 1021.8 1008.8
04 16.08 В 2 20 км н/о +13.4 +10.9 85 +13 +13 1021.7 1008.7
05 16.08 В 2 20 км н/о +13.1 +11.0 87 +12 +12 1022.0 1009.0
06 16.08 В 1 20 км 1/0
[Ci fib]
+13.3 +10.7 84 +13 +13 1022.4 1009.4 +13.0
07 16.08 штиль 0 20 км н/о +14.2 +11.5 84 +14 +14 1022.7 1009.7
08 16.08 СВ 1 20 км н/о +17.4 +11.9 70 +18 +18 1022.9 1010.1
09 16.08 С 1 20 км 5/0
[Ci fib]
+19.6 +12.6 64 +23 +31 комфорт 1022.9 1010.2
10 16.08 СЗ 1 20 км н/о +21.8 +12.4 55 +24 +24 комфорт 1022.2 1009.6
11 16.08 З 2 20 км н/о +23.6 +12.6 50 +26 +26 жарко 1022.2 1009.7
12 16.08 З 3 20 км 3/0
[Ci fib]
+24.0 +14.1 54 +26 +40 жарко 1022.1 1009.6
13 16.08 З 3 20 км н/о +23.6 +14.6 57 +26 +26 жарко 1021.8 1009.3
14 16.08 З 2 20 км н/о +23.9 +15.1 58 +27 +27 жарко 1021.8 1009.3
15 16.08 З 3 20 км 1/0
[Ci fib]
+23.1 +15.7 63 +27 +38 душно 1021.9 1009.3
16 16.08 Ю 1 20 км н/о +23.5 +15.8 62 +27 +27 душно 1021.4 1008.9
17 16.08 З 2 20 км н/о +22.7 +16.3 67 +27 +27 душно 1021.8 1009.2
18 16.08 З 1 20 км 1/1 600 м
[Sc]
+22.1 +17.0 73 +27 +28 душно 1021.9 1009.3 +25.2
19 16.08 Ю 1 20 км н/о +21.1 +17.1 78 +25 +25 комфорт 1021.8 1009.2
20 16.08 Ю 1 20 км н/о +19.9 +16.9 83 +24 +24 комфорт 1022.0 1009.3
21 16.08 Ю 1 20 км н/о +19.0 +17.0 88 +22 +22 комфорт 1022.1 1009.4
22 16.08 Ю 1 20 км н/о +19.1 +17.2 89 +22 +22 комфорт 1022.1 1009.4
23 16.08 СВ 1 19 км н/о +19.4 +17.2 87 +23 +23 комфорт 1021.8 1009.1
00 17.08 ЮВ 1 20 км н/о +19.5 +17.3 87 +23 +23 комфорт 1021.5 1008.8
01 17.08 Ю 1 20 км н/о +19.4 +17.4 88 +23 +23 комфорт 1021.4 1008.7
02 17.08 Ю 1 16 км н/о +19.4 +17.5 89 +23 +23 комфорт 1021.1 1008.4
03 17.08 ЮВ 1 20 км н/о +19.2 +17.5 90 +23 +23 комфорт 1020.8 1008.1
04 17.08 ЮВ 1 20 км н/о +19.1 +17.6 91 +22 +22 комфорт 1020.7 1008.0
05 17.08 СЗ 1 15 км н/о +19.1 +17.6 91 +22 +22 комфорт 1020.9 1008.2
06 17.08 штиль 0 15 км 10/10 600 м
[Sc]
+19.2 +17.7 91 +21 +21 комфорт 1021.1 1008.4 +18.8
07 17.08 СЗ 1 20 км н/о +19.5 +17.1 86 +23 +23 комфорт 1021.1 1008.4
08 17.08 З 1 20 км н/о +21.1 +16.9 77 +25 +25 комфорт 1020.9 1008.3
09 17.08 Ю 1 20 км 4/4 600 м
[Sc Ci fib]
+22.4 +16.7 70 +27 +32 душно 1021.1 1008.5
10 17.08 З 2 20 км н/о +23.9 +16.9 65 +28 +28 душно 1021.1 1008.6
11 17.08 З 2 20 км н/о +24.9 +17.1 62 +29 +29 душно 1020.7 1008.2
12 17.08 З 2 20 км 3/0
[Ci sp]
+25.5 +17.2 60 +29 +46 душно 1020.1 1007.7
13 17.08 З 2 20 км н/о +24.2 +17.0 64 +28 +28 душно 1019.8 1007.3
14 17.08 З 3 20 км н/о +24.6 +17.3 64 +29 +29 душно 1019.4 1007.0
15 17.08 З 2 20 км 4/0
[Ci sp]
+24.7 +17.2 63 +29 +39 душно 1019.3 1006.9
16 17.08 Ю 1 20 км н/о +24.3 +16.8 63 +28 +28 душно 1019.0 1006.5
17 17.08 Ю 1 20 км н/о +23.2 +16.7 67 +28 +28 душно 1019.0 1006.5
18 17.08 ЮЗ 1 20 км 1/0
[Ci fib]
+22.5 +17.0 71 +27 +29 душно 1019.3 1006.8 +26.3
19 17.08 З 2 20 км н/о +21.5 +16.9 75 +25 +25 комфорт 1019.9 1007.3
20 17.08 З 1 20 км н/о +19.9 +16.7 82 +24 +24 комфорт 1020.5 1007.8
21 17.08 ЮЗ 1 20 км н/о +18.8 +16.8 88 +22 +22 комфорт 1020.9 1008.2
22 17.08 штиль 0 20 км н/о +18.0 +16.7 92 +18 +18 1021.0 1008.2
23 17.08 В 2 20 км н/о +17.7 +16.2 91 +18 +18 1020.8 1008.0
00 18.08 В 2 20 км н/о +17.4 +16.4 94 +18 +18 1020.8 1008.0
01 18.08 СВ 1 20 км н/о +17.4 +15.9 91 +18 +18 1020.1 1007.3
02 18.08 СВ 1 20 км н/о +17.6 +15.8 89 +19 +19 1019.9 1007.1
03 18.08 СВ 1 20 км н/о +17.7 +15.9 89 +19 +19 1019.6 1006.8
04 18.08 СВ 2 20 км н/о +17.7 +15.9 89 +18 +18 1019.3 1006.6
05 18.08 штиль 0 20 км н/о +17.7 +15.9 89 +18 +18 1018.6 1005.9
06 18.08 В 2 20 км 9/9 600 м
[Cu Sc]
+17.5 +16.0 91 +18 +18 1019.5 1006.7 +17.2
07 18.08 В 1 20 км н/о +18.4 +16.6 89 +20 +20 1019.8 1007.1
08 18.08 ЮВ 1 20 км в посл. час морось н/о +20.3 +17.3 83 +25 +25 комфорт 1019.8 1007.2
09 18.08 З 1 20 км 8/1 600 м
[Sc Ci fib]
+21.9 +17.7 77 +26 +33 душно 1019.8 1007.2
10 18.08 З 2 20 км н/о +24.1 +18.5 71 +29 +29 душно 1020.1 1007.6
11 18.08 Ю 1 20 км н/о +26.2 +18.6 63 +31 +31 очень
душно
1020.1 1007.7
12 18.08 Ю 1 20 км 5/4 600 м
[Cu hum Ci fib]
+27.3 +19.1 61 +33 +44 очень
душно
1019.8 1007.5
13 18.08 З 2 20 км н/о +26.8 +18.9 62 +32 +32 очень
душно
1019.7 1007.3
14 18.08 З 2 20 км н/о +26.5 +18.6 62 +31 +31 душно 1019.3 1006.9
15 18.08 З 2 20 км 6/1 600 м
[Cu hum Ci]
+25.8 +18.5 64 +31 +40 очень
душно
1018.6 1006.2
16 18.08 З 2 20 км н/о +25.5 +18.2 64 +30 +30 душно 1018.6 1006.2
17 18.08 З 2 12 км н/о +25.0 +18.2 66 +29 +29 душно 1018.8 1006.4
18 18.08 ЮЗ 1 18 км 9/1 600 м
[Sc Ci]
+24.6 +17.8 66 +29 +30 душно 1018.7 1006.3 +27.7
19 18.08 СЗ 2 15 км н/о +23.5 +17.0 67 +27 +27 душно 1019.1 1006.6
20 18.08 С 2 20 км н/о +21.6 +16.3 72 +25 +25 комфорт 1019.6 1007.0
21 18.08 СЗ 3 20 км н/о +20.8 +16.0 74 +25 +25 комфорт 1020.3 1007.7
22 18.08 С 2 20 км н/о +19.8 +16.1 79 +23 +23 комфорт 1020.3 1007.6
23 18.08 СЗ 1 20 км н/о +19.2 +15.9 81 +22 +22 комфорт 1020.1 1007.4
00 19.08 С 2 20 км н/о +19.0 +15.1 78 +21 +21 комфорт 1020.0 1007.3
01 19.08 С 2 20 км н/о +18.6 +14.5 77 +20 +20 1019.6 1006.9
02 19.08 СЗ 1 20 км н/о +18.1 +14.2 78 +19 +19 1019.5 1006.8
03 19.08 СЗ 2 20 км н/о +17.5 +14.2 81 +18 +18 1019.9 1007.1
04 19.08 З 2 20 км н/о +17.1 +14.4 84 +18 +18 1019.8 1007.0
05 19.08 СЗ 1 20 км н/о +15.8 +14.2 90 +16 +16 1019.8 1007.0
06 19.08 СЗ 1 20 км 8/0
[Ci fib]
+15.4 +13.9 91 +16 +16 1020.3 1007.4 +15.3
07 19.08 ЮВ 1 20 км н/о +16.3 +14.5 89 +18 +18 1020.4 1007.6
08 19.08 С 2 20 км н/о +19.4 +14.2 72 +22 +22 комфорт 1020.3 1007.6
09 19.08 С 2 20 км 8/1 600 м
[Sc Ci fib]
+21.5 +14.4 64 +24 +30 комфорт 1020.2 1007.6
10 19.08 С 2 20 км н/о +24.0 +14.4 55 +27 +27 жарко 1020.0 1007.5
11 19.08 С 2 20 км н/о +26.3 +14.7 49 +29 +29 жарко 1019.7 1007.3
12 19.08 С 3 20 км 3/0
[Ci]
+27.6 +13.9 43 +30 +43 жарко 1019.0 1006.7
13 19.08 СЗ 5 20 км н/о +28.6 +12.1 36 +30 +30 жарко 1018.6 1006.3
14 19.08 СЗ 5 20 км н/о +29.1 +13.7 39 +31 +31 жарко 1018.4 1006.1
15 19.08 СЗ 5 20 км 1/0
[Ci fib]
+29.4 +12.3 35 +30 +37 жарко 1018.2 1005.9
16 19.08 СЗ 6 20 км н/о +28.8 +13.1 38 +30 +30 жарко 1018.1 1005.8
17 19.08 СЗ 3 20 км н/о +28.6 +12.5 37 +30 +30 жарко 1018.4 1006.1

 

Местоположение метеостанции Pontevedra (Испания): широта 42.43 долгота -8.62 высота над уровнем моря 108 м.

В архиве по умолчанию представлена погода в Pontevedra за последнюю неделю. Архивные данные за месяц целиком и за предыдущие месяцы, начиная с января 2011 года, Вы можете получить, выбрав интересующий диапазон дат из раскрывающегося списка и нажав кнопку "Ввод!".

Внимание! Время в таблицах - всемирное. Для получения местного времени необходимо прибавить поправку, которая в Pontevedra равна 1 ч.

Смотрите также архив погоды в соседних городах и на ближайших метеорологических станциях:

Погода в Vigo (Испания) (22 км)
Погода в Santiago (Испания) (55 км)
Погода в Orense (Испания) (63 км)
Погода в Viana Do Castelo (Португалия) (90 км)
Погода в La Coruna (Испания) (106 км)
Погода в Lugo (Испания) (123 км)
Погода в Porto (Португалия) (134 км)
Погода в Vila Real (Португалия) (149 км)
Погода в Ponferrada (Испания) (168 км)
Погода в Ovar (Португалия) (168 км)

Пояснения к столбцам:

Ветер - указаны скорость ветра в м/с - средняя за 10 мин, порывы в срок и между сроками (в фигурных скобках) и направление, откуда дует ветер: С - северный, СВ - северо-восточный, В - восточный, ЮВ - юго-восточный, Ю - южный, ЮЗ - юго-западный, З - западный, СЗ - северо-западный.
Видимость - горизонтальная дальность видимости в метрах или километрах. При видимости от 1 до 10 км при отсутствии осадков обычно наблюдается дымка, при ухудшении видимости до 1 км и менее - туман. В сухую погоду видимость может ухудшаться дымом, пылью или мглою.
Явления - указаны атмосферные явления, наблюдавшиеся в срок или в последний час перед сроком; фигурными скобками обозначены явления, наблюдавшиеся между сроками (за 1-3 часа до срока); квадратными скобками обозначены град или гололедные отложения с указанием их диаметра в мм.
Облачность - указаны через наклонную черту общая и нижняя облачность в баллах и высота нижней границы облаков в метрах; квадратными скобками обозначены формы облаков: Ci - перистые, Cs - перисто-слоистые, Cc - перисто-кучевые, Ac - высококучевые, As - высокослоистые, Sc - слоисто-кучевые, Ns - слоисто-дождевые, Cu - кучевые, Cb - кучево-дождевые. Подробнее классификацию облаков см. в Атласе облаков (PDF).
T - Температура воздуха - температура, измеренная на высоте 2 м над землей.
Td - Температура точки росы - температура, при понижении до которой содержащийся в воздухе водяной пар достигнет насыщения.
f - Относительная влажность воздуха - влажноcть воздуха, измеренная на высоте 2 м над землей.
Te - Эффективная температура - температура, которую ощущает одетый по сезону человек в тени. Характеристика душности погоды. При расчете учитывается влияние влажности воздуха и скорости ветра на теплоощущения человека.
Tes - Эффективная температура на солнце - температура, которую ощущает человек, с поправкой на солнечный нагрев. Характеристика знойности погоды. Зависит от высоты солнца над горизонтом, облачности и скорости ветра. Ночью, в пасмурную погоду, а также при ветре 12 м/с и более поправка равна нулю.
P - Атмосферное давление - приведенное к уровню моря атмосферное давление.
Po - Атмосферное давление - измеренное на уровне метеостанции атмосферное давление.
Tmin - Минимальная температура - минимум температуры воздуха на высоте 2 м над землей.
Tmax - Максимальная температура - максимум температуры воздуха на высоте 2 м над землей.
R - Количество осадков - Количество выпавших осадков за период времени, мм. При наведении курсора мыши на число - период времени, за который выпало указанное количество осадков.
R24 - Количество осадков - Количество выпавших осадков за 24 часа, мм.
S - Снежный покров - Высота снежного покрова, см. При наведении курсора мыши на число - состояние снежного покрова и степень покрытия местности в баллах.